Orbital Elements at Epoch 2459000.5 (2020-May-31.0) TDB
Reference: JPL 10 (heliocentric ecliptic J2000)
Element | Value | Uncertainty (1-sigma) | Units |
e | .1949070552306026 | 3.8549e-08 | |
a | 2.651923893938007 | 1.8344e-08 | au |
q | 2.135045217074877 | 1.0537e-07 | au |
i | 2.831451056914954 | 7.5269e-06 | deg |
node | 137.5089961716277 | 9.1129e-05 | deg |
peri | 287.69286741998 | 9.3342e-05 | deg |
M | 329.3342486511832 | 2.1501e-05 | deg |
tp | 2459134.866535820786 (2020-Oct-12.36653582) | 9.4706e-05 | TDB |
period | 1577.393371036693 4.32 | 1.6367e-05 4.481e-08 | d yr |
n | .2282246182912516 | 2.3681e-09 | deg/d |
Q | 3.168802570801136 | 2.192e-08 | au |
|
| | Orbit Determination Parameters
Additional Information
|